N917JD KCRP-KEYW

Flight info

Callsign N917JD
Flight time N/A
Altitude 17000
Route WORRY V13 PSX/N0441F370 MUSYL KLAMS VIPER CIGAR
Aircraft A319/M-SDE3FGHIRWY/LB1

Departure

Time 2026-04-24 21:08
Airport Corpus Christi International Airport (KCRP)

Arrival

Time N/A
Airport Key West International Airport (KEYW)
Time Latitude Longitude Altitude Speed Heading
2026-04-24 20:55 27.77296 -97.49987 54 ft 0 kts 227°
2026-04-24 21:02 27.77289 -97.49995 53 ft 5 kts 227°
2026-04-24 21:02 27.77257 -97.50060 54 ft 13 kts 256°
2026-04-24 21:02 27.77253 -97.50171 54 ft 15 kts 269°
2026-04-24 21:02 27.77252 -97.50291 54 ft 16 kts 269°
2026-04-24 21:03 27.77261 -97.50416 54 ft 16 kts 272°
2026-04-24 21:03 27.77236 -97.50540 54 ft 16 kts 282°
2026-04-24 21:03 27.77311 -97.50641 51 ft 17 kts 314°
2026-04-24 21:03 27.77395 -97.50738 54 ft 17 kts 315°
2026-04-24 21:04 27.77481 -97.50834 54 ft 18 kts 315°
2026-04-24 21:04 27.77570 -97.50931 54 ft 18 kts 316°
2026-04-24 21:04 27.77662 -97.51030 54 ft 18 kts 316°
2026-04-24 21:04 27.77754 -97.51131 52 ft 18 kts 315°
2026-04-24 21:05 27.77846 -97.51232 54 ft 19 kts 316°
2026-04-24 21:05 27.77939 -97.51333 54 ft 19 kts 316°
2026-04-24 21:05 27.77993 -97.51425 54 ft 10 kts 252°
2026-04-24 21:05 27.77949 -97.51479 52 ft 5 kts 226°
2026-04-24 21:06 27.77949 -97.51480 52 ft 0 kts 226°
2026-04-24 21:06 27.77946 -97.51483 51 ft 2 kts 226°
2026-04-24 21:07 27.77920 -97.51513 50 ft 8 kts 226°
2026-04-24 21:07 27.77870 -97.51525 52 ft 9 kts 143°
2026-04-24 21:07 27.77852 -97.51505 52 ft 0 kts 135°
2026-04-24 21:07 27.77841 -97.51493 49 ft 12 kts 135°
2026-04-24 21:08 27.77632 -97.51264 52 ft 72 kts 136°
2026-04-24 21:08 27.77128 -97.50714 53 ft 128 kts 136°
2026-04-24 21:08 27.76400 -97.49946 358 ft 148 kts 137°
2026-04-24 21:08 27.75644 -97.49172 1040 ft 146 kts 138°
2026-04-24 21:09 27.74901 -97.48403 1708 ft 145 kts 139°
2026-04-24 21:09 27.74108 -97.47580 2064 ft 165 kts 140°
2026-04-24 21:09 27.73207 -97.46641 2308 ft 187 kts 140°
2026-04-24 21:09 27.72193 -97.45577 2578 ft 209 kts 139°
2026-04-24 21:10 27.71089 -97.44414 2905 ft 229 kts 138°
2026-04-24 21:10 27.69857 -97.43112 3001 ft 254 kts 139°
2026-04-24 21:10 27.68548 -97.41725 3012 ft 260 kts 139°
2026-04-24 21:10 27.67226 -97.40326 3007 ft 261 kts 138°
2026-04-24 21:11 27.65911 -97.38936 3013 ft 262 kts 138°
2026-04-24 21:11 27.64579 -97.37521 3017 ft 263 kts 137°
2026-04-24 21:11 27.63248 -97.36101 3015 ft 263 kts 138°
2026-04-24 21:11 27.61917 -97.34682 3020 ft 264 kts 137°
2026-04-24 21:12 27.60580 -97.33262 3015 ft 264 kts 138°
2026-04-24 21:12 27.59247 -97.31843 3019 ft 264 kts 137°
2026-04-24 21:12 27.57908 -97.30417 3020 ft 265 kts 138°
2026-04-24 21:12 27.56579 -97.28994 3011 ft 263 kts 135°
2026-04-24 21:13 27.55602 -97.27247 3094 ft 272 kts 109°
2026-04-24 21:13 27.55411 -97.25109 3885 ft 278 kts 84°
2026-04-24 21:13 27.56053 -97.23043 4724 ft 282 kts 54°
2026-04-24 21:13 27.57466 -97.21533 5553 ft 285 kts 27°
2026-04-24 21:14 27.59360 -97.20915 6316 ft 286 kts 359°
2026-04-24 21:14 27.61363 -97.21057 7045 ft 292 kts 352°
2026-04-24 21:14 27.63398 -97.21250 7811 ft 294 kts 352°
2026-04-24 21:14 27.65460 -97.21443 8549 ft 299 kts 353°
2026-04-24 21:15 27.67550 -97.21633 9283 ft 303 kts 353°
2026-04-24 21:15 27.69670 -97.21823 9989 ft 307 kts 353°
2026-04-24 21:15 27.71848 -97.21950 10366 ft 325 kts
2026-04-24 21:15 27.74110 -97.21273 10497 ft 351 kts 27°
2026-04-24 21:16 27.76023 -97.19461 10622 ft 373 kts 53°
2026-04-24 21:16 27.77117 -97.16806 10776 ft 389 kts 77°
2026-04-24 21:16 27.77670 -97.13777 11136 ft 397 kts 81°
2026-04-24 21:16 27.78106 -97.10677 11651 ft 401 kts 82°
2026-04-24 21:17 27.78490 -97.07543 12189 ft 405 kts 83°
2026-04-24 21:17 27.78869 -97.04378 12727 ft 409 kts 82°
2026-04-24 21:17 27.79271 -97.01188 13309 ft 412 kts 82°
2026-04-24 21:17 27.79700 -96.97976 13831 ft 415 kts 81°
2026-04-24 21:18 27.80153 -96.94738 14295 ft 420 kts 81°
2026-04-24 21:18 27.80623 -96.91467 14787 ft 424 kts 80°
2026-04-24 21:18 27.81100 -96.88166 15264 ft 428 kts 80°
2026-04-24 21:18 27.81578 -96.84832 15723 ft 433 kts 80°
2026-04-24 21:19 27.82058 -96.81453 16206 ft 437 kts 80°
2026-04-24 21:19 27.82540 -96.78041 16683 ft 441 kts 80°
2026-04-24 21:19 27.83025 -96.74598 17146 ft 446 kts 80°
2026-04-24 21:19 27.83507 -96.71161 17590 ft 450 kts 80°
2026-04-24 21:20 27.84495 -96.64065 18426 ft 459 kts 79°
2026-04-24 21:20 27.84990 -96.60491 18813 ft 463 kts 79°
2026-04-24 21:20 27.85483 -96.56927 19184 ft 466 kts 79°
2026-04-24 21:21 27.85985 -96.53291 19572 ft 470 kts 79°
2026-04-24 21:21 27.86490 -96.49623 19976 ft 474 kts 79°
2026-04-24 21:21 27.86999 -96.45928 20348 ft 477 kts 79°
2026-04-24 21:21 27.87510 -96.42213 20708 ft 480 kts 79°
2026-04-24 21:22 27.88023 -96.38463 21051 ft 484 kts 79°
2026-04-24 21:22 27.88539 -96.34691 21384 ft 487 kts 79°
2026-04-24 21:22 27.89058 -96.30893 21701 ft 490 kts 79°
2026-04-24 21:22 27.89580 -96.27078 22020 ft 493 kts 79°
2026-04-24 21:23 27.90107 -96.23232 22329 ft 496 kts 79°
2026-04-24 21:23 27.90637 -96.19366 22624 ft 499 kts 79°
2026-04-24 21:23 27.91168 -96.15474 22920 ft 502 kts 79°
2026-04-24 21:23 27.91699 -96.11548 23206 ft 505 kts 79°
2026-04-24 21:24 27.92228 -96.07612 23472 ft 508 kts 78°
2026-04-24 21:24 27.92759 -96.03661 23713 ft 510 kts 79°
2026-04-24 21:24 27.93289 -95.99683 23968 ft 513 kts 79°
2026-04-24 21:24 27.93820 -95.95685 24226 ft 515 kts 79°
2026-04-24 21:25 27.94356 -95.91670 24482 ft 517 kts 79°
2026-04-24 21:25 27.94898 -95.87637 24725 ft 519 kts 78°
2026-04-24 21:25 27.95442 -95.83596 24971 ft 522 kts 78°
2026-04-24 21:25 27.95988 -95.79529 25208 ft 524 kts 79°
2026-04-24 21:26 27.96532 -95.75444 25454 ft 526 kts 79°
2026-04-24 21:26 27.97069 -95.71382 25688 ft 528 kts 79°
2026-04-24 21:26 27.97611 -95.67258 25941 ft 530 kts 79°
2026-04-24 21:26 27.98151 -95.63125 26164 ft 532 kts 79°
2026-04-24 21:27 27.98692 -95.58977 26392 ft 534 kts 79°
2026-04-24 21:27 27.99235 -95.54811 26620 ft 536 kts 79°
2026-04-24 21:27 27.99780 -95.50635 26925 ft 536 kts 79°
2026-04-24 21:27 28.00142 -95.47863 27143 ft 536 kts 79°
2026-04-24 21:28 28.00872 -95.42277 27563 ft 536 kts 79°
2026-04-24 21:28 28.01414 -95.38108 27884 ft 536 kts 79°
2026-04-24 21:28 28.01954 -95.33927 28215 ft 536 kts 79°
2026-04-24 21:28 28.02493 -95.29741 28577 ft 536 kts 79°
2026-04-24 21:29 28.03027 -95.25577 28921 ft 536 kts 79°
2026-04-24 21:29 28.03564 -95.21404 29268 ft 536 kts 78°
2026-04-24 21:29 28.04100 -95.17230 29617 ft 536 kts 78°
2026-04-24 21:29 28.04633 -95.13058 29951 ft 536 kts 78°
2026-04-24 21:30 28.05165 -95.08887 30243 ft 536 kts 78°
2026-04-24 21:30 28.05697 -95.04700 30523 ft 537 kts 78°
2026-04-24 21:30 28.06229 -95.00522 30804 ft 537 kts 78°
2026-04-24 21:30 28.06763 -94.96328 31081 ft 538 kts 78°
2026-04-24 21:31 28.07295 -94.92137 31379 ft 538 kts 78°
2026-04-24 21:31 28.07823 -94.87947 31685 ft 538 kts 78°
2026-04-24 21:31 28.08350 -94.83746 31988 ft 539 kts 78°
2026-04-24 21:31 28.08875 -94.79542 32268 ft 539 kts 78°
2026-04-24 21:32 28.09391 -94.75390 32552 ft 540 kts 78°
2026-04-24 21:32 28.09915 -94.71176 32845 ft 541 kts 78°
2026-04-24 21:32 28.10439 -94.66958 33130 ft 541 kts 78°
2026-04-24 21:32 28.10960 -94.62740 33434 ft 542 kts 78°
2026-04-24 21:33 28.11484 -94.58507 33734 ft 542 kts 78°
2026-04-24 21:33 28.11840 -94.55649 33945 ft 542 kts 78°
2026-04-24 21:33 28.12537 -94.50040 34355 ft 541 kts 78°
2026-04-24 21:33 28.13056 -94.45823 34651 ft 541 kts 78°
2026-04-24 21:34 28.13571 -94.41603 34934 ft 541 kts 78°
2026-04-24 21:34 28.14085 -94.37374 35208 ft 541 kts 78°
2026-04-24 21:34 28.14597 -94.33151 35477 ft 541 kts 78°
2026-04-24 21:34 28.15114 -94.28920 35742 ft 541 kts 78°
2026-04-24 21:35 28.15631 -94.24691 36004 ft 541 kts 78°
2026-04-24 21:35 28.16144 -94.20463 36253 ft 542 kts 78°
2026-04-24 21:35 28.16651 -94.16236 36522 ft 541 kts 78°
2026-04-24 21:35 28.17141 -94.12007 36771 ft 541 kts 79°
2026-04-24 21:36 28.17542 -94.07763 36845 ft 543 kts 81°
2026-04-24 21:36 28.18079 -93.99210 36848 ft 544 kts 83°
2026-04-24 21:37 28.18424 -93.92092 36849 ft 544 kts 83°
2026-04-24 21:37 28.18907 -93.83536 36850 ft 544 kts 82°
2026-04-24 21:38 28.19469 -93.74996 36850 ft 542 kts 82°
2026-04-24 21:38 28.20034 -93.66483 36854 ft 542 kts 82°
2026-04-24 21:39 28.20573 -93.58011 36856 ft 542 kts 82°
2026-04-24 21:39 28.21095 -93.49431 36861 ft 542 kts 82°
2026-04-24 21:40 28.21608 -93.40912 36863 ft 542 kts 82°
2026-04-24 21:40 28.22117 -93.32435 36860 ft 542 kts 82°
2026-04-24 21:41 28.22629 -93.23913 36858 ft 541 kts 82°